Year,Month,Day,Hour,Minute,Value (Times are PST for temperature in C)
2007,04,28,00,00,9.50
2007,04,28,00,01,9.50
2007,04,28,00,02,9.50
2007,04,28,00,03,9.40
2007,04,28,00,04,9.40
2007,04,28,00,05,9.40
2007,04,28,00,06,9.40
2007,04,28,00,07,9.40
2007,04,28,00,08,9.40
2007,04,28,00,09,9.40
2007,04,28,00,10,9.40
2007,04,28,00,11,9.40
2007,04,28,00,12,9.40
2007,04,28,00,13,9.40
2007,04,28,00,14,9.50
2007,04,28,00,15,9.50
2007,04,28,00,16,9.50
2007,04,28,00,17,9.50
2007,04,28,00,18,9.50
2007,04,28,00,19,9.50
2007,04,28,00,20,9.50
2007,04,28,00,21,9.50
2007,04,28,00,22,9.50
2007,04,28,00,23,9.50
2007,04,28,00,24,9.50
2007,04,28,00,25,9.50
2007,04,28,00,26,9.40
2007,04,28,00,27,9.40
2007,04,28,00,28,9.40
2007,04,28,00,29,9.30
2007,04,28,00,30,9.20
2007,04,28,00,31,9.20
2007,04,28,00,32,9.10
2007,04,28,00,33,9.00
2007,04,28,00,34,9.00
2007,04,28,00,35,8.90
2007,04,28,00,36,8.80
2007,04,28,00,37,8.70
2007,04,28,00,38,8.70
2007,04,28,00,39,8.70
2007,04,28,00,40,8.70
2007,04,28,00,41,8.60
2007,04,28,00,42,8.60
2007,04,28,00,43,8.50
2007,04,28,00,44,8.50
2007,04,28,00,45,8.50
2007,04,28,00,46,8.40
2007,04,28,00,47,8.40
2007,04,28,00,48,8.40
2007,04,28,00,49,8.30
2007,04,28,00,50,8.20
2007,04,28,00,51,8.20
2007,04,28,00,52,8.20
2007,04,28,00,53,8.10
2007,04,28,00,54,8.00
2007,04,28,00,55,8.00
2007,04,28,00,56,8.00
2007,04,28,00,57,7.90
2007,04,28,00,58,7.90
2007,04,28,00,59,7.90
2007,04,28,01,00,7.90
2007,04,28,01,01,7.90
2007,04,28,01,02,8.00
2007,04,28,01,03,8.00
2007,04,28,01,04,8.10
2007,04,28,01,05,8.10
2007,04,28,01,06,8.20
2007,04,28,01,07,8.20
2007,04,28,01,08,8.20
2007,04,28,01,09,8.30
2007,04,28,01,10,8.30
2007,04,28,01,11,8.30
2007,04,28,01,12,8.40
2007,04,28,01,13,8.40
2007,04,28,01,14,8.40
2007,04,28,01,15,8.50
2007,04,28,01,16,8.50
2007,04,28,01,17,8.50
2007,04,28,01,18,8.60
2007,04,28,01,19,8.60
2007,04,28,01,20,8.70
2007,04,28,01,21,8.70
2007,04,28,01,22,8.70
2007,04,28,01,23,8.70
2007,04,28,01,24,8.70
2007,04,28,01,25,8.70
2007,04,28,01,26,8.70
2007,04,28,01,27,8.70
2007,04,28,01,28,8.70
2007,04,28,01,29,8.70
2007,04,28,01,30,8.70
2007,04,28,01,31,8.70
2007,04,28,01,32,8.70
2007,04,28,01,33,8.70
2007,04,28,01,34,8.70
2007,04,28,01,35,8.70
2007,04,28,01,36,8.80
2007,04,28,01,37,8.80
2007,04,28,01,38,8.80
2007,04,28,01,39,8.80
2007,04,28,01,40,8.80
2007,04,28,01,41,8.80
2007,04,28,01,42,8.80
2007,04,28,01,43,8.80
2007,04,28,01,44,8.80
2007,04,28,01,45,8.80
2007,04,28,01,46,8.80
2007,04,28,01,47,8.70
2007,04,28,01,48,8.70
2007,04,28,01,49,8.70
2007,04,28,01,50,8.70
2007,04,28,01,51,8.70
2007,04,28,01,52,8.70
2007,04,28,01,53,8.70
2007,04,28,01,54,8.70
2007,04,28,01,55,8.70
2007,04,28,01,56,8.70
2007,04,28,01,57,8.70
2007,04,28,01,58,8.70
2007,04,28,01,59,8.70
2007,04,28,02,00,8.70
2007,04,28,02,01,8.70
2007,04,28,02,02,8.70
2007,04,28,02,03,8.70
2007,04,28,02,04,8.70
2007,04,28,02,05,8.70
2007,04,28,02,06,8.70
2007,04,28,02,07,8.70
2007,04,28,02,08,8.60
2007,04,28,02,09,8.60
2007,04,28,02,10,8.50
2007,04,28,02,11,8.50
2007,04,28,02,12,8.40
2007,04,28,02,13,8.40
2007,04,28,02,14,8.30
2007,04,28,02,15,8.30
2007,04,28,02,16,8.20
2007,04,28,02,17,8.20
2007,04,28,02,18,8.10
2007,04,28,02,19,8.10
2007,04,28,02,20,8.00
2007,04,28,02,21,8.00
2007,04,28,02,22,7.90
2007,04,28,02,23,7.90
2007,04,28,02,24,7.90
2007,04,28,02,25,7.80
2007,04,28,02,26,7.80
2007,04,28,02,27,7.80
2007,04,28,02,28,7.70
2007,04,28,02,29,7.60
2007,04,28,02,30,7.50
2007,04,28,02,31,7.50
2007,04,28,02,32,7.40
2007,04,28,02,33,7.30
2007,04,28,02,34,7.30
2007,04,28,02,35,7.20
2007,04,28,02,36,7.10
2007,04,28,02,37,7.00
2007,04,28,02,38,6.90
2007,04,28,02,39,6.80
2007,04,28,02,40,6.80
2007,04,28,02,41,6.70
2007,04,28,02,42,6.70
2007,04,28,02,43,6.60
2007,04,28,02,44,6.50
2007,04,28,02,45,6.40
2007,04,28,02,46,6.40
2007,04,28,02,47,6.40
2007,04,28,02,48,6.40
2007,04,28,02,49,6.40
2007,04,28,02,50,6.30
2007,04,28,02,51,6.30
2007,04,28,02,52,6.30
2007,04,28,02,53,6.30
2007,04,28,02,54,6.30
2007,04,28,02,55,6.40
2007,04,28,02,56,6.40
2007,04,28,02,57,6.40
2007,04,28,02,58,6.40
2007,04,28,02,59,6.40
2007,04,28,03,00,6.40
2007,04,28,03,01,6.30
2007,04,28,03,02,6.30
2007,04,28,03,03,6.30
2007,04,28,03,04,6.30
2007,04,28,03,05,6.30
2007,04,28,03,06,6.20
2007,04,28,03,07,6.20
2007,04,28,03,08,6.20
2007,04,28,03,09,6.20
2007,04,28,03,10,6.20
2007,04,28,03,11,6.20
2007,04,28,03,12,6.20
2007,04,28,03,13,6.20
2007,04,28,03,14,6.10
2007,04,28,03,15,6.10
2007,04,28,03,16,6.00
2007,04,28,03,17,6.00
2007,04,28,03,18,6.00
2007,04,28,03,19,5.90
2007,04,28,03,20,5.90
2007,04,28,03,21,5.90
2007,04,28,03,22,5.80
2007,04,28,03,23,5.80
2007,04,28,03,24,5.70
2007,04,28,03,25,5.70
2007,04,28,03,26,5.70
2007,04,28,03,27,5.70
2007,04,28,03,28,5.60
2007,04,28,03,29,5.60
2007,04,28,03,30,5.60
2007,04,28,03,31,5.50
2007,04,28,03,32,5.50
2007,04,28,03,33,5.50
2007,04,28,03,34,5.50
2007,04,28,03,35,5.50
2007,04,28,03,36,5.50
2007,04,28,03,37,5.50
2007,04,28,03,38,5.50
2007,04,28,03,39,5.50
2007,04,28,03,40,5.50
2007,04,28,03,41,5.50
2007,04,28,03,42,5.50
2007,04,28,03,43,5.50
2007,04,28,03,44,5.50
2007,04,28,03,45,5.50
2007,04,28,03,46,5.50
2007,04,28,03,47,5.50
2007,04,28,03,48,5.50
2007,04,28,03,49,5.50
2007,04,28,03,50,5.50
2007,04,28,03,51,5.50
2007,04,28,03,52,5.50
2007,04,28,03,53,5.50
2007,04,28,03,54,5.50
2007,04,28,03,55,5.60
2007,04,28,03,56,5.60
2007,04,28,03,57,5.60
2007,04,28,03,58,5.50
2007,04,28,03,59,5.50
2007,04,28,04,00,5.50
2007,04,28,04,01,5.50
2007,04,28,04,02,5.40
2007,04,28,04,03,5.40
2007,04,28,04,04,5.40
2007,04,28,04,05,5.40
2007,04,28,04,06,5.30
2007,04,28,04,07,5.30
2007,04,28,04,08,5.30
2007,04,28,04,09,5.30
2007,04,28,04,10,5.30
2007,04,28,04,11,5.30
2007,04,28,04,12,5.30
2007,04,28,04,13,5.30
2007,04,28,04,14,5.20
2007,04,28,04,15,5.20
2007,04,28,04,16,5.20
2007,04,28,04,17,5.20
2007,04,28,04,18,5.10
2007,04,28,04,19,5.10
2007,04,28,04,20,5.10
2007,04,28,04,21,5.10
2007,04,28,04,22,5.10
2007,04,28,04,23,5.10
2007,04,28,04,24,5.10
2007,04,28,04,25,5.10
2007,04,28,04,26,4.90
2007,04,28,04,27,4.90
2007,04,28,04,28,4.90
2007,04,28,04,29,4.90
2007,04,28,04,30,4.90
2007,04,28,04,31,4.90
2007,04,28,04,32,4.80
2007,04,28,04,33,4.80
2007,04,28,04,34,4.80
2007,04,28,04,35,4.70
2007,04,28,04,36,4.70
2007,04,28,04,37,4.60
2007,04,28,04,38,4.60
2007,04,28,04,39,4.60
2007,04,28,04,40,4.60
2007,04,28,04,41,4.60
2007,04,28,04,42,4.50
2007,04,28,04,43,4.50
2007,04,28,04,44,4.50
2007,04,28,04,45,4.50
2007,04,28,04,46,4.40
2007,04,28,04,47,4.40
2007,04,28,04,48,4.40
2007,04,28,04,49,4.40
2007,04,28,04,50,4.40
2007,04,28,04,51,4.30
2007,04,28,04,52,4.30
2007,04,28,04,53,4.30
2007,04,28,04,54,4.30
2007,04,28,04,55,4.30
2007,04,28,04,56,4.30
2007,04,28,04,57,4.20
2007,04,28,04,58,4.20
2007,04,28,04,59,4.20
2007,04,28,05,00,4.20
2007,04,28,05,01,4.20
2007,04,28,05,02,4.20
2007,04,28,05,03,4.20
2007,04,28,05,04,4.20
2007,04,28,05,05,4.20
2007,04,28,05,06,4.20
2007,04,28,05,07,4.20
2007,04,28,05,08,4.20
2007,04,28,05,09,4.20
2007,04,28,05,10,4.20
2007,04,28,05,11,4.10
2007,04,28,05,12,4.10
2007,04,28,05,13,4.10
2007,04,28,05,14,4.10
2007,04,28,05,15,4.10
2007,04,28,05,16,4.10
2007,04,28,05,17,4.20
2007,04,28,05,18,4.20
2007,04,28,05,19,4.20
2007,04,28,05,20,4.20
2007,04,28,05,21,4.20
2007,04,28,05,22,4.20
2007,04,28,05,23,4.20
2007,04,28,05,24,4.20
2007,04,28,05,25,4.20
2007,04,28,05,26,4.20
2007,04,28,05,27,4.20
2007,04,28,05,28,4.20
2007,04,28,05,29,4.20
2007,04,28,05,30,4.20
2007,04,28,05,31,4.20
2007,04,28,05,32,4.20
2007,04,28,05,33,4.20
2007,04,28,05,34,4.20
2007,04,28,05,35,4.10
2007,04,28,05,36,4.10
2007,04,28,05,37,4.10
2007,04,28,05,38,4.10
2007,04,28,05,39,4.10
2007,04,28,05,40,4.10
2007,04,28,05,41,4.10
2007,04,28,05,42,4.00
2007,04,28,05,43,4.00
2007,04,28,05,44,4.00
2007,04,28,05,45,4.00
2007,04,28,05,46,4.00
2007,04,28,05,47,4.00
2007,04,28,05,48,4.00
2007,04,28,05,49,4.00
2007,04,28,05,50,3.90
2007,04,28,05,51,3.90
2007,04,28,05,52,3.90
2007,04,28,05,53,3.90
2007,04,28,05,54,3.90
2007,04,28,05,55,3.90
2007,04,28,05,56,3.90
2007,04,28,05,57,3.80
2007,04,28,05,58,3.80
2007,04,28,05,59,3.80
2007,04,28,06,00,3.80
2007,04,28,06,01,3.80
2007,04,28,06,02,3.80
2007,04,28,06,03,3.80
2007,04,28,06,04,3.80
2007,04,28,06,05,3.80
2007,04,28,06,06,3.80
2007,04,28,06,07,3.80
2007,04,28,06,08,3.80
2007,04,28,06,09,3.80
2007,04,28,06,10,3.80
2007,04,28,06,11,3.80
2007,04,28,06,12,3.80
2007,04,28,06,13,3.80
2007,04,28,06,14,3.80
2007,04,28,06,15,3.90
2007,04,28,06,16,3.90
2007,04,28,06,17,3.90
2007,04,28,06,18,3.90
2007,04,28,06,19,3.90
2007,04,28,06,20,3.90
2007,04,28,06,21,3.90
2007,04,28,06,22,3.90
2007,04,28,06,23,3.90
2007,04,28,06,24,3.90
2007,04,28,06,25,3.90
2007,04,28,06,26,3.90
2007,04,28,06,27,3.90
2007,04,28,06,28,3.90
2007,04,28,06,29,3.90
2007,04,28,06,30,3.90
2007,04,28,06,31,3.90
2007,04,28,06,32,3.90
2007,04,28,06,33,3.90
2007,04,28,06,34,3.90
2007,04,28,06,35,3.90
2007,04,28,06,36,3.90
2007,04,28,06,37,3.90
2007,04,28,06,38,3.90
2007,04,28,06,39,3.90
2007,04,28,06,40,3.90
2007,04,28,06,41,3.90
2007,04,28,06,42,4.00
2007,04,28,06,43,4.00
2007,04,28,06,44,4.00
2007,04,28,06,45,4.00
2007,04,28,06,46,4.00
2007,04,28,06,47,4.10
2007,04,28,06,48,4.10
2007,04,28,06,49,4.10
2007,04,28,06,50,4.10
2007,04,28,06,51,4.10
2007,04,28,06,52,4.10
2007,04,28,06,53,4.20
2007,04,28,06,54,4.20
2007,04,28,06,55,4.20
2007,04,28,06,56,4.20
2007,04,28,06,57,4.20
2007,04,28,06,58,4.20
2007,04,28,06,59,4.30
2007,04,28,07,00,4.30
2007,04,28,07,01,4.30
2007,04,28,07,02,4.30
2007,04,28,07,03,4.30
2007,04,28,07,04,4.40
2007,04,28,07,05,4.40
2007,04,28,07,06,4.40
2007,04,28,07,07,4.50
2007,04,28,07,08,4.50
2007,04,28,07,09,4.50
2007,04,28,07,10,4.60
2007,04,28,07,11,4.60
2007,04,28,07,12,4.60
2007,04,28,07,13,4.60
2007,04,28,07,14,4.60
2007,04,28,07,15,4.70
2007,04,28,07,16,4.70
2007,04,28,07,17,4.70
2007,04,28,07,18,4.80
2007,04,28,07,19,4.80
2007,04,28,07,20,4.90
2007,04,28,07,21,4.90
2007,04,28,07,22,4.90
2007,04,28,07,23,4.90
2007,04,28,07,24,4.90
2007,04,28,07,25,5.00
2007,04,28,07,26,5.10
2007,04,28,07,27,5.10
2007,04,28,07,28,5.10
2007,04,28,07,29,5.10
2007,04,28,07,30,5.10
2007,04,28,07,31,5.20
2007,04,28,07,32,5.20
2007,04,28,07,33,5.20
2007,04,28,07,34,5.20
2007,04,28,07,35,5.30
2007,04,28,07,36,5.30
2007,04,28,07,37,5.30
2007,04,28,07,38,5.30
2007,04,28,07,39,5.30
2007,04,28,07,40,5.30
2007,04,28,07,41,5.30
2007,04,28,07,42,5.30
2007,04,28,07,43,5.30
2007,04,28,07,44,5.30
2007,04,28,07,45,5.40
2007,04,28,07,46,5.40
2007,04,28,07,47,5.40
2007,04,28,07,48,5.40
2007,04,28,07,49,5.50
2007,04,28,07,50,5.50
2007,04,28,07,51,5.50
2007,04,28,07,52,5.60
2007,04,28,07,53,5.60
2007,04,28,07,54,5.60
2007,04,28,07,55,5.70
2007,04,28,07,56,5.70
2007,04,28,07,57,5.70
2007,04,28,07,58,5.70
2007,04,28,07,59,5.80
2007,04,28,08,00,5.90
2007,04,28,08,01,5.90
2007,04,28,08,02,6.00
2007,04,28,08,03,6.00
2007,04,28,08,04,6.10
2007,04,28,08,05,6.10
2007,04,28,08,06,6.20
2007,04,28,08,07,6.20
2007,04,28,08,08,6.20
2007,04,28,08,09,6.30
2007,04,28,08,10,6.30
2007,04,28,08,11,6.40
2007,04,28,08,12,6.40
2007,04,28,08,13,6.40
2007,04,28,08,14,6.50
2007,04,28,08,15,6.60
2007,04,28,08,16,6.60
2007,04,28,08,17,6.60
2007,04,28,08,18,6.70
2007,04,28,08,19,6.80
2007,04,28,08,20,6.80
2007,04,28,08,21,6.80
2007,04,28,08,22,6.90
2007,04,28,08,23,7.00
2007,04,28,08,24,7.10
2007,04,28,08,25,7.20
2007,04,28,08,26,7.30
2007,04,28,08,27,7.30
2007,04,28,08,28,7.40
2007,04,28,08,29,7.50
2007,04,28,08,30,7.60
2007,04,28,08,31,7.60
2007,04,28,08,32,7.70
2007,04,28,08,33,7.80
2007,04,28,08,34,7.80
2007,04,28,08,35,7.90
2007,04,28,08,36,8.00
2007,04,28,08,37,8.00
2007,04,28,08,38,8.10
2007,04,28,08,39,8.20
2007,04,28,08,40,8.20
2007,04,28,08,41,8.30
2007,04,28,08,42,8.40
2007,04,28,08,43,8.40
2007,04,28,08,44,8.50
2007,04,28,08,45,8.60
2007,04,28,08,46,8.70
2007,04,28,08,47,8.70
2007,04,28,08,48,8.80
2007,04,28,08,49,8.90
2007,04,28,08,50,8.90
2007,04,28,08,51,9.00
2007,04,28,08,52,9.00
2007,04,28,08,53,9.10
2007,04,28,08,54,9.20
2007,04,28,08,55,9.20
2007,04,28,08,56,9.20
2007,04,28,08,57,9.20
2007,04,28,08,58,9.20
2007,04,28,08,59,9.20
2007,04,28,09,00,9.20
2007,04,28,09,01,9.20
2007,04,28,09,02,9.20
2007,04,28,09,03,9.30
2007,04,28,09,04,9.30
2007,04,28,09,05,9.40
2007,04,28,09,06,9.40
2007,04,28,09,07,9.40
2007,04,28,09,08,9.40
2007,04,28,09,09,9.50
2007,04,28,09,10,9.50
2007,04,28,09,11,9.50
2007,04,28,09,12,9.50
2007,04,28,09,13,9.50
2007,04,28,09,14,9.50
2007,04,28,09,15,9.60
2007,04,28,09,16,9.60
2007,04,28,09,17,9.60
2007,04,28,09,18,9.60
2007,04,28,09,19,9.60
2007,04,28,09,20,9.50
2007,04,28,09,21,9.50
2007,04,28,09,22,9.50
2007,04,28,09,23,9.50
2007,04,28,09,24,9.50
2007,04,28,09,25,9.60
2007,04,28,09,26,9.60
2007,04,28,09,27,9.70
2007,04,28,09,28,9.70
2007,04,28,09,29,9.70
2007,04,28,09,30,9.70
2007,04,28,09,31,9.70
2007,04,28,09,32,9.70
2007,04,28,09,33,9.80
2007,04,28,09,34,9.80
2007,04,28,09,35,9.80
2007,04,28,09,36,9.80
2007,04,28,09,37,9.80
2007,04,28,09,38,9.80
2007,04,28,09,39,9.80
2007,04,28,09,40,9.80
2007,04,28,09,41,9.70
2007,04,28,09,42,9.80
2007,04,28,09,43,9.80
2007,04,28,09,44,9.80
2007,04,28,09,45,9.80
2007,04,28,09,46,9.80
2007,04,28,09,47,9.80
2007,04,28,09,48,9.80
2007,04,28,09,49,9.90
2007,04,28,09,50,9.90
2007,04,28,09,51,10.00
2007,04,28,09,52,10.10
2007,04,28,09,53,10.10
2007,04,28,09,54,10.10
2007,04,28,09,55,10.10
2007,04,28,09,56,10.10
2007,04,28,09,57,10.20
2007,04,28,09,58,10.20
2007,04,28,09,59,10.20
2007,04,28,10,00,10.10
2007,04,28,10,01,10.10
2007,04,28,10,02,10.10
2007,04,28,10,03,10.10
2007,04,28,10,04,10.00
2007,04,28,10,05,9.90
2007,04,28,10,06,9.90
2007,04,28,10,07,9.90
2007,04,28,10,08,10.10
2007,04,28,10,09,10.10
2007,04,28,10,10,10.20
2007,04,28,10,11,10.20
2007,04,28,10,12,10.30
2007,04,28,10,13,10.30
2007,04,28,10,14,10.30
2007,04,28,10,15,10.30
2007,04,28,10,16,10.30
2007,04,28,10,17,10.30
2007,04,28,10,18,10.20
2007,04,28,10,19,10.20
2007,04,28,10,20,10.20
2007,04,28,10,21,10.10
2007,04,28,10,22,10.10
2007,04,28,10,23,10.10
2007,04,28,10,24,10.10
2007,04,28,10,25,10.10
2007,04,28,10,26,10.20
2007,04,28,10,27,10.20
2007,04,28,10,28,10.30
2007,04,28,10,29,10.30
2007,04,28,10,30,10.40
2007,04,28,10,31,10.40
2007,04,28,10,32,10.40
2007,04,28,10,33,10.50
2007,04,28,10,34,10.60
2007,04,28,10,35,10.60
2007,04,28,10,36,10.50
2007,04,28,10,37,10.40
2007,04,28,10,38,10.30
2007,04,28,10,39,10.30
2007,04,28,10,40,10.20
2007,04,28,10,41,10.30
2007,04,28,10,42,10.30
2007,04,28,10,43,10.40
2007,04,28,10,44,10.40
2007,04,28,10,45,10.40
2007,04,28,10,46,10.40
2007,04,28,10,47,10.40
2007,04,28,10,48,10.30
2007,04,28,10,49,10.30
2007,04,28,10,50,10.30
2007,04,28,10,51,10.40
2007,04,28,10,52,10.40
2007,04,28,10,53,10.50
2007,04,28,10,54,10.60
2007,04,28,10,55,10.60
2007,04,28,10,56,10.60
2007,04,28,10,57,10.60
2007,04,28,10,58,10.60
2007,04,28,10,59,10.60
2007,04,28,11,00,10.70
2007,04,28,11,01,10.70
2007,04,28,11,02,10.70
2007,04,28,11,03,10.60
2007,04,28,11,04,10.60
2007,04,28,11,05,10.60
2007,04,28,11,06,10.60
2007,04,28,11,07,10.60
2007,04,28,11,08,10.60
2007,04,28,11,09,10.70
2007,04,28,11,10,10.70
2007,04,28,11,11,10.80
2007,04,28,11,12,10.80
2007,04,28,11,13,10.90
2007,04,28,11,14,11.00
2007,04,28,11,15,11.10
2007,04,28,11,16,11.20
2007,04,28,11,17,11.30
2007,04,28,11,18,11.40
2007,04,28,11,19,11.50
2007,04,28,11,20,11.60
2007,04,28,11,21,11.60
2007,04,28,11,22,11.60
2007,04,28,11,23,11.60
2007,04,28,11,24,11.60
2007,04,28,11,25,11.70
2007,04,28,11,26,11.80
2007,04,28,11,27,11.80
2007,04,28,11,28,11.70
2007,04,28,11,29,11.70
2007,04,28,11,30,11.70
2007,04,28,11,31,11.70
2007,04,28,11,32,11.80
2007,04,28,11,33,11.80
2007,04,28,11,34,11.90
2007,04,28,11,35,12.00
2007,04,28,11,36,12.00
2007,04,28,11,37,11.90
2007,04,28,11,38,11.80
2007,04,28,11,39,11.80
2007,04,28,11,40,11.90
2007,04,28,11,41,11.90
2007,04,28,11,42,11.90
2007,04,28,11,43,12.00
2007,04,28,11,44,12.00
2007,04,28,11,45,12.10
2007,04,28,11,46,12.10
2007,04,28,11,47,12.10
2007,04,28,11,48,12.20
2007,04,28,11,49,12.20
2007,04,28,11,50,12.20
2007,04,28,11,51,12.20
2007,04,28,11,52,12.20
2007,04,28,11,53,12.20
2007,04,28,11,54,12.20
2007,04,28,11,55,12.20
2007,04,28,11,56,12.30
2007,04,28,11,57,12.30
2007,04,28,11,58,12.40
2007,04,28,11,59,12.40
2007,04,28,12,00,12.40
2007,04,28,12,01,12.50
2007,04,28,12,02,12.50
2007,04,28,12,03,12.50
2007,04,28,12,04,12.50
2007,04,28,12,05,12.60
2007,04,28,12,06,12.60
2007,04,28,12,07,12.50
2007,04,28,12,08,12.30
2007,04,28,12,09,12.30
2007,04,28,12,10,12.30
2007,04,28,12,11,12.30
2007,04,28,12,12,12.40
2007,04,28,12,13,12.50
2007,04,28,12,14,12.60
2007,04,28,12,15,12.50
2007,04,28,12,16,12.40
2007,04,28,12,17,12.40
2007,04,28,12,18,12.50
2007,04,28,12,19,12.40
2007,04,28,12,20,12.50
2007,04,28,12,21,12.50
2007,04,28,12,22,12.50
2007,04,28,12,23,12.50
2007,04,28,12,24,12.50
2007,04,28,12,25,12.50
2007,04,28,12,26,12.40
2007,04,28,12,27,12.40
2007,04,28,12,28,12.40
2007,04,28,12,29,12.40
2007,04,28,12,30,12.40
2007,04,28,12,31,12.40
2007,04,28,12,32,12.30
2007,04,28,12,33,12.40
2007,04,28,12,34,12.40
2007,04,28,12,35,12.40
2007,04,28,12,36,12.50
2007,04,28,12,37,12.60
2007,04,28,12,38,12.60
2007,04,28,12,39,12.70
2007,04,28,12,40,12.80
2007,04,28,12,41,12.80
2007,04,28,12,42,12.80
2007,04,28,12,43,12.80
2007,04,28,12,44,12.80
2007,04,28,12,45,12.70
2007,04,28,12,46,12.70
2007,04,28,12,47,12.70
2007,04,28,12,48,12.80
2007,04,28,12,49,12.70
2007,04,28,12,50,12.70
2007,04,28,12,51,12.70
2007,04,28,12,52,12.70
2007,04,28,12,53,12.80
2007,04,28,12,54,12.80
2007,04,28,12,55,12.90
2007,04,28,12,56,13.00
2007,04,28,12,57,13.10
2007,04,28,12,58,13.20
2007,04,28,12,59,13.40
2007,04,28,13,00,13.50
2007,04,28,13,01,13.50
2007,04,28,13,02,13.50
2007,04,28,13,03,13.50
2007,04,28,13,04,13.30
2007,04,28,13,05,13.30
2007,04,28,13,06,13.30
2007,04,28,13,07,13.30
2007,04,28,13,08,13.30
2007,04,28,13,09,13.20
2007,04,28,13,10,13.20
2007,04,28,13,11,13.20
2007,04,28,13,12,13.20
2007,04,28,13,13,13.30
2007,04,28,13,14,13.20
2007,04,28,13,15,13.00
2007,04,28,13,16,12.90
2007,04,28,13,17,12.90
2007,04,28,13,18,12.90
2007,04,28,13,19,12.90
2007,04,28,13,20,12.90
2007,04,28,13,21,12.90
2007,04,28,13,22,13.00
2007,04,28,13,23,13.00
2007,04,28,13,24,13.00
2007,04,28,13,25,13.00
2007,04,28,13,26,12.90
2007,04,28,13,27,12.80
2007,04,28,13,28,12.80
2007,04,28,13,29,12.90
2007,04,28,13,30,12.90
2007,04,28,13,31,12.90
2007,04,28,13,32,12.90
2007,04,28,13,33,12.90
2007,04,28,13,34,13.00
2007,04,28,13,35,13.10
2007,04,28,13,36,13.20
2007,04,28,13,37,13.30
2007,04,28,13,38,13.30
2007,04,28,13,39,13.30
2007,04,28,13,40,13.40
2007,04,28,13,41,13.30
2007,04,28,13,42,13.20
2007,04,28,13,43,13.10
2007,04,28,13,44,13.10
2007,04,28,13,45,13.00
2007,04,28,13,46,13.00
2007,04,28,13,47,13.10
2007,04,28,13,48,13.10
2007,04,28,13,49,13.20
2007,04,28,13,50,13.20
2007,04,28,13,51,13.20
2007,04,28,13,52,13.30
2007,04,28,13,53,13.40
2007,04,28,13,54,13.50
2007,04,28,13,55,13.50
2007,04,28,13,56,13.60
2007,04,28,13,57,13.50
2007,04,28,13,58,13.50
2007,04,28,13,59,13.60
2007,04,28,14,00,13.70
2007,04,28,14,01,13.80
2007,04,28,14,02,13.80
2007,04,28,14,03,13.80
2007,04,28,14,04,13.90
2007,04,28,14,05,13.90
2007,04,28,14,06,13.90
2007,04,28,14,07,13.90
2007,04,28,14,08,13.90
2007,04,28,14,09,13.90
2007,04,28,14,10,13.80
2007,04,28,14,11,13.70
2007,04,28,14,12,13.80
2007,04,28,14,13,13.90
2007,04,28,14,14,13.90
2007,04,28,14,15,14.00
2007,04,28,14,16,14.10
2007,04,28,14,17,14.10
2007,04,28,14,18,14.10
2007,04,28,14,19,14.10
2007,04,28,14,20,14.00
2007,04,28,14,21,13.90
2007,04,28,14,22,13.80
2007,04,28,14,23,13.80
2007,04,28,14,24,13.80
2007,04,28,14,25,13.80
2007,04,28,14,26,13.90
2007,04,28,14,27,14.00
2007,04,28,14,28,14.00
2007,04,28,14,29,14.00
2007,04,28,14,30,14.10
2007,04,28,14,31,14.00
2007,04,28,14,32,14.10
2007,04,28,14,33,14.20
2007,04,28,14,34,14.30
2007,04,28,14,35,14.30
2007,04,28,14,36,14.40
2007,04,28,14,37,14.50
2007,04,28,14,38,14.60
2007,04,28,14,39,14.70
2007,04,28,14,40,14.80
2007,04,28,14,41,14.80
2007,04,28,14,42,14.80
2007,04,28,14,43,14.80
2007,04,28,14,44,14.80
2007,04,28,14,45,14.90
2007,04,28,14,46,15.00
2007,04,28,14,47,15.10
2007,04,28,14,48,15.20
2007,04,28,14,49,15.30
2007,04,28,14,50,15.30
2007,04,28,14,51,15.30
2007,04,28,14,52,15.40
2007,04,28,14,53,15.30
2007,04,28,14,54,15.10
2007,04,28,14,55,14.90
2007,04,28,14,56,14.80
2007,04,28,14,57,14.80
2007,04,28,14,58,14.80
2007,04,28,14,59,14.80
2007,04,28,15,00,14.80
2007,04,28,15,01,14.80
2007,04,28,15,02,14.80
2007,04,28,15,03,15.00
2007,04,28,15,04,15.10
2007,04,28,15,05,15.30
2007,04,28,15,06,15.30
2007,04,28,15,07,15.40
2007,04,28,15,08,15.40
2007,04,28,15,09,15.30
2007,04,28,15,10,15.30
2007,04,28,15,11,15.30
2007,04,28,15,12,15.30
2007,04,28,15,13,15.40
2007,04,28,15,14,15.40
2007,04,28,15,15,15.50
2007,04,28,15,16,15.60
2007,04,28,15,17,15.60
2007,04,28,15,18,15.60
2007,04,28,15,19,15.40
2007,04,28,15,20,15.30
2007,04,28,15,21,15.20
2007,04,28,15,22,15.20
2007,04,28,15,23,15.10
2007,04,28,15,24,15.00
2007,04,28,15,25,15.00
2007,04,28,15,26,15.00
2007,04,28,15,27,15.00
2007,04,28,15,28,15.10
2007,04,28,15,29,15.10
2007,04,28,15,30,15.20
2007,04,28,15,31,15.30
2007,04,28,15,32,15.00
2007,04,28,15,33,14.90
2007,04,28,15,34,14.80
2007,04,28,15,35,14.60
2007,04,28,15,36,14.40
2007,04,28,15,37,14.40
2007,04,28,15,38,14.40
2007,04,28,15,39,14.20
2007,04,28,15,40,14.20
2007,04,28,15,41,14.20
2007,04,28,15,42,14.20
2007,04,28,15,43,14.20
2007,04,28,15,44,14.30
2007,04,28,15,45,14.40
2007,04,28,15,46,14.50
2007,04,28,15,47,14.50
2007,04,28,15,48,14.60
2007,04,28,15,49,14.70
2007,04,28,15,50,14.80
2007,04,28,15,51,14.90
2007,04,28,15,52,15.00
2007,04,28,15,53,15.10
2007,04,28,15,54,15.00
2007,04,28,15,55,15.00
2007,04,28,15,56,15.10
2007,04,28,15,57,15.20
2007,04,28,15,58,15.30
2007,04,28,15,59,15.40
2007,04,28,16,00,15.50
2007,04,28,16,01,15.60
2007,04,28,16,02,15.60
2007,04,28,16,03,15.70
2007,04,28,16,04,15.80
2007,04,28,16,05,15.80
2007,04,28,16,06,15.80
2007,04,28,16,07,15.60
2007,04,28,16,08,15.50
2007,04,28,16,09,15.40
2007,04,28,16,10,15.30
2007,04,28,16,11,15.30
2007,04,28,16,12,15.20
2007,04,28,16,13,15.00
2007,04,28,16,14,15.00
2007,04,28,16,15,14.90
2007,04,28,16,16,14.80
2007,04,28,16,17,14.70
2007,04,28,16,18,14.50
2007,04,28,16,19,14.30
2007,04,28,16,20,14.20
2007,04,28,16,21,14.10
2007,04,28,16,22,14.20
2007,04,28,16,23,14.20
2007,04,28,16,24,14.20
2007,04,28,16,25,14.30
2007,04,28,16,26,14.50
2007,04,28,16,27,14.60
2007,04,28,16,28,14.60
2007,04,28,16,29,14.70
2007,04,28,16,30,14.80
2007,04,28,16,31,14.90
2007,04,28,16,32,14.90
2007,04,28,16,33,15.00
2007,04,28,16,34,15.00
2007,04,28,16,35,15.00
2007,04,28,16,36,15.00
2007,04,28,16,37,14.90
2007,04,28,16,38,14.80
2007,04,28,16,39,14.90
2007,04,28,16,40,14.90
2007,04,28,16,41,15.00
2007,04,28,16,42,15.00
2007,04,28,16,43,15.10
2007,04,28,16,44,15.20
2007,04,28,16,45,15.20
2007,04,28,16,46,15.30
2007,04,28,16,47,15.30
2007,04,28,16,48,15.30
2007,04,28,16,49,15.30
2007,04,28,16,50,15.30
2007,04,28,16,51,15.30
2007,04,28,16,52,15.30
2007,04,28,16,53,15.40
2007,04,28,16,54,15.50
2007,04,28,16,55,15.50
2007,04,28,16,56,15.60
2007,04,28,16,57,15.60
2007,04,28,16,58,15.70
2007,04,28,16,59,15.80
2007,04,28,17,00,15.80
2007,04,28,17,01,15.70
2007,04,28,17,02,15.70
2007,04,28,17,03,15.70
2007,04,28,17,04,15.70
2007,04,28,17,05,15.80
2007,04,28,17,06,15.80
2007,04,28,17,07,15.70
2007,04,28,17,08,15.70
2007,04,28,17,09,15.70
2007,04,28,17,10,15.70
2007,04,28,17,11,15.60
2007,04,28,17,12,15.50
2007,04,28,17,13,15.60
2007,04,28,17,14,15.50
2007,04,28,17,15,15.50
2007,04,28,17,16,15.50
2007,04,28,17,17,15.60
2007,04,28,17,18,15.60
2007,04,28,17,19,15.50
2007,04,28,17,20,15.40
2007,04,28,17,21,15.40
2007,04,28,17,22,15.30
2007,04,28,17,23,15.40
2007,04,28,17,24,15.40
2007,04,28,17,25,15.40
2007,04,28,17,26,15.40
2007,04,28,17,27,15.30
2007,04,28,17,28,15.30
2007,04,28,17,29,15.30
2007,04,28,17,30,15.40
2007,04,28,17,31,15.40
2007,04,28,17,32,15.30
2007,04,28,17,33,15.30
2007,04,28,17,34,15.30
2007,04,28,17,35,15.30
2007,04,28,17,36,15.40
2007,04,28,17,37,15.40
2007,04,28,17,38,15.40
2007,04,28,17,39,15.40
2007,04,28,17,40,15.30
2007,04,28,17,41,15.30
2007,04,28,17,42,15.30
2007,04,28,17,43,15.30
2007,04,28,17,44,15.30
2007,04,28,17,45,15.40